Showing default

OPS 2222, 3334

Orbit data source: Space-Track

OPS 2222, 3334 is an American payload satellite in GEO that was launched on Tue, 06 Aug 1968 UTC via an ATLAS SLV-3A AGENA D launch vehicle from the Air Force Eastern Test Range (AFETR). Payload-class satellites include a variety of spacecraft equipped with specific instruments for various scientific and technological missions. These include communications satellites like Starlink; space stations such as the ISS; scientific satellites like the Hubble; Earth observation satellites from companies like Planet Labs, Umbra, and HawkEye 360; GPS; miniature CubeSats for education and research; and military/defense satellites.

Not visible in the next 10 days
Identifier
3334, 1968-063A
Orbit
GEO
Country
Flag of USUS
Related business
Manufacturer
LMSC?
Mission
Non-operational spacecraft
Bus & Motor
CANYON, Unknown motor
Mass
~240 kg wet, ~200 kg dry
Launch date (UTC)
1968-08-06 (57 years ago)
Launch vehicle
ATLAS SLV-3A AGENA D
Launch site
Air Force Eastern Test Range (AFETR)
Object type
Payload
Rocket body
Debris
Shape & HBR
Unknown
Radar Cross Section
RCS unknown

Expand to show TLE details & history
Last TLE update: 12 hours ago

TLE from 12 hours ago
0 OPS 2222
1 03334U 68063A   25303.25686700 -.00000107  00000-0  00000-0 0  9992
2 03334   6.5123 284.8373 0909272 225.3457 347.4888  0.99255896 23846
Epoch: 2025-10-30T06:09Z
TLE epoch observation values (Epoch: 2025-10-30T06:09:53.308Z)
Latitude
-3.29459°
Longitude
3.60399°
Altitude
32,337.223 km
Speed
3.347 km/s
True Right ascension
08h 59m 34s
True Declination
-3° 17' 27"
Sunlit
Object was in daylight at epoch
Visualization orbit readout
Latitude
Unknown
Longitude
Unknown
Altitude
Unknown
Speed
Unknown
Apparent Right ascension
Unknown
Apparent Declination
Unknown
Sunlit
N/A
Visualization observer readout
Local Sidereal Time
13:41:09
Azimuth
Unknown
Elevation
Unknown
Doppler factor
Unknown
Orbital elements
Apogee altitude
39,935.001 km
Perigee altitude
32,214.735 km
Semi-major axis
42,453.005 km
Eccentricity
0.09093
Inclination
6.5123°
RAAN
284.8373°
Arg. of periapsis
225.3457°
True anomaly
344.95237°
Mean anomaly
347.4888°
Eccentric anomaly
346.25057°
Mean motion
0.24813 °/min
Orbital period
1,450.85 mins
BSTAR
0
Loading maneuver chart data...
Computing Atmospheric mass density...
Loading historical data...
Loading historical data...
Loading historical data...
Loading historical data...
Loading historical data...
Loading historical data...
Loading historical data...
Other satellites on launch #63 in the year 1968 (1968-08-06 UTC)

Documentation

Showing up to 5 results
|